Location: Unspecified
(0.0000°N, 0.0000°E)
Time: 00:07:12
(UTC+00:00)

N. Korean satellite - Pass Details

Date: 23 February 2020
Orbit: 456 x 505 km, 97.2° (Epoch: 26 February)

Event Time Altitude Azimuth Distance (km) Brightness Sun altitude
Rises 04:29:02 0° 47° (NE) 2,567 10.7 -25.7°
Reaches altitude 10° 04:32:38 10° 86° (E) 1,678 10.3 -24.8°
Maximum altitude 04:33:35 11° 101° (E) 1,623 10.3 -24.6°
Drops below altitude 10° 04:34:31 10° 116° (ESE) 1,673 10.3 -24.3°
Sets 04:38:04 0° 154° (SSE) 2,543 10.7 -23.5°
